DW8750 Weather Reports


Display with metric or nautical units.
time (UTC)temp
F
wind
direction
speed
MPH
gust
MPH
rain 1hr
in
rain 24hr
in
rain mn
in
humidity
%
barometer
mb
20260505074228 69 323 3.0 5.0 0.00 0.00 0.00 66 1017.8
20260505073241 69 315 1.0 4.0 0.00 0.00 0.00 66 1017.9
20260505072227 69 295 2.0 4.0 0.00 0.00 0.00 66 1017.9
20260505071229 68 355 1.0 3.0 0.00 0.00 0.00 68 1018.0
20260505070229 68 225 1.0 3.0 0.00 0.00 0.00 69 1018.1
20260505065228 67 319 1.0 4.0 0.00 0.00 0.00 70 1018.0
20260505064227 67 295 1.0 3.0 0.00 0.00 0.00 68 1018.2
20260505061222 66 210 1.0 2.0 0.00 0.00 0.00 74 1018.1
20260505060223 64 210 0.0 2.0 0.00 0.00 0.00 71 1018.2
20260505055221 63 210 1.0 3.0 0.00 0.00 0.00 73 1018.2
20260505054222 62 210 2.0 4.0 0.00 0.00 0.00 74 1018.2
20260505053223 62 210 1.0 4.0 0.00 0.00 0.00 75 1018.2
20260505052224 61 210 1.0 3.0 0.00 0.00 0.00 76 1018.1
20260505051222 60 210 1.0 3.0 0.00 0.00 0.00 77 1017.9
20260505050222 60 210 1.0 3.0 0.00 0.00 0.00 78 1017.8
20260505041222 60 210 0.0 2.0 0.00 0.00 0.00 77 1017.4
20260505035219 60 210 2.0 4.0 0.00 0.00 0.00 78 1017.1
20260505034220 60 210 2.0 3.0 0.00 0.00 0.00 78 1017.3
20260505033219 60 210 1.0 4.0 0.00 0.00 0.00 78 1017.1
20260505032220 60 184 0.0 2.0 0.00 0.00 0.00 78 1017.2
20260505030216 60 184 1.0 3.0 0.00 0.00 0.00 78 1017.1
20260505025224 60 184 1.0 3.0 0.00 0.00 0.00 78 1017.2
20260505024228 60 184 1.0 2.0 0.00 0.00 0.00 78 1017.2
20260505023221 60 184 2.0 3.0 0.00 0.00 0.00 78 1017.4
20260505022223 60 184 2.0 3.0 0.00 0.00 0.00 78 1017.5
20260505021224 60 184 2.0 3.0 0.00 0.00 0.00 78 1017.5
20260505020224 60 184 2.0 4.0 0.00 0.00 0.00 78 1017.6
20260505015221 60 193 2.0 4.0 0.00 0.00 0.00 78 1017.7
20260505014220 60 219 2.0 3.0 0.00 0.00 0.00 78 1017.7
20260505013213 60 219 0.0 2.0 0.00 0.00 0.00 78 1017.8
20260505012220 60 219 1.0 2.0 0.00 0.00 0.00 78 1017.9
20260505011219 60 219 3.0 4.0 0.00 0.00 0.00 78 1018.0
20260505010220 60 219 2.0 4.0 0.00 0.00 0.00 78 1017.9
20260505005216 60 229 0.0 4.0 0.00 0.00 0.00 78 1017.9
20260505004213 60 220 0.0 0.0 0.00 0.00 0.00 77 1017.9
20260505003213 60 220 0.0 0.0 0.00 0.00 0.00 77 1017.9
20260505002206 60 220 2.0 4.0 0.00 0.00 0.00 77 1017.9
20260505001205 60 220 1.0 3.0 0.00 0.00 0.00 77 1018.0
20260505000211 60 220 2.0 3.0 0.00 0.00 0.00 77 1018.2
20260504235208 60 220 2.0 4.0 0.00 0.00 0.00 77 1018.4
20260504234205 61 220 2.0 3.0 0.00 0.00 0.00 77 1018.7
20260504233205 61 220 1.0 3.0 0.00 0.00 0.00 76 1018.8
20260504232207 61 192 2.0 4.0 0.00 0.00 0.00 76 1018.8
20260504230201 61 192 0.0 5.0 0.00 0.00 0.00 76 1019.0
20260504224204 61 212 1.0 3.0 0.00 0.00 0.00 76 1019.1
20260504223202 61 212 1.0 2.0 0.00 0.00 0.00 76 1019.0
20260504222201 61 212 1.0 2.0 0.00 0.00 0.00 75 1019.1
20260504221202 61 212 3.0 4.0 0.00 0.00 0.00 75 1019.1
20260504220203 61 188 3.0 5.0 0.00 0.00 0.00 75 1019.3
20260504215156 61 205 3.0 5.0 0.00 0.00 0.00 76 1019.4
20260504214156 61 205 2.0 4.0 0.00 0.00 0.00 76 1019.5
20260504212157 60 182 2.0 5.0 0.00 0.00 0.00 76 1019.5
20260504211158 60 194 3.0 6.0 0.00 0.00 0.00 76 1019.5
20260504210159 61 202 1.0 5.0 0.00 0.00 0.00 75 1019.5
20260504205156 61 202 1.0 3.0 0.00 0.00 0.00 75 1019.5
20260504204154 61 202 1.0 3.0 0.00 0.00 0.00 75 1019.4
20260504203157 61 202 3.0 5.0 0.00 0.00 0.00 75 1019.5
20260504202156 61 225 2.0 4.0 0.00 0.00 0.00 75 1019.7
20260504201156 62 225 2.0 3.0 0.00 0.00 0.00 74 1019.8
20260504200156 62 214 2.0 4.0 0.00 0.00 0.00 74 1019.7
20260504194155 62 182 2.0 3.0 0.00 0.00 0.00 73 1019.5
20260504193158 63 267 2.0 4.0 0.00 0.00 0.00 73 1019.6
20260504192148 63 240 0.0 2.0 0.00 0.00 0.00 73 1019.5
20260504190150 63 235 2.0 4.0 0.00 0.00 0.00 73 1019.3
20260504185148 63 79 1.0 3.0 0.00 0.00 0.00 75 1019.2
20260504184148 64 79 0.0 0.0 0.00 0.00 0.00 77 1019.3
20260504183146 64 79 0.0 3.0 0.00 0.00 0.00 77 1019.2
20260504182144 64 79 2.0 4.0 0.00 0.00 0.00 77 1019.1
20260504181145 65 79 2.0 5.0 0.00 0.00 0.00 75 1019.1
20260504180142 65 79 1.0 3.0 0.00 0.00 0.00 72 1019.1
20260504174144 65 67 4.0 8.0 0.00 0.00 0.00 66 1019.1
20260504172142 66 68 4.0 9.0 0.00 0.00 0.00 59 1019.0
20260504171142 67 52 5.0 9.0 0.00 0.00 0.00 59 1018.9
20260504170144 67 78 5.0 9.0 0.00 0.00 0.00 54 1018.7
20260504160135 68 53 6.0 10.0 0.00 0.00 0.00 54 1018.6
20260504151126 69 71 6.0 12.0 0.00 0.00 0.00 58 1018.9
20260504150126 69 41 7.0 12.0 0.00 0.00 0.00 59 1019.0
20260504141120 69 86 7.0 11.0 0.00 0.00 0.00 57 1019.2
20260504140117 69 60 6.0 12.0 0.00 0.00 0.00 54 1019.3
20260504130119 69 106 6.0 11.0 0.00 0.00 0.00 55 1019.9
20260504120118 69 44 9.0 14.0 0.00 0.00 0.00 44 1020.1
20260504110118 70 55 7.0 14.0 0.00 0.00 0.00 54 1020.4
20260504090115 69 57 8.0 12.0 0.00 0.00 0.00 44 1020.9
20260504081109 68 44 5.0 10.0 0.00 0.00 0.00 60 1020.9
20260504080107 68 63 4.0 10.0 0.00 0.00 0.00 60 1020.9